Regional Weather Roundup
Issued by NWS

Home | Current Version | Previous Version | Text Only | Print | Product List | Glossary On
Versions: 1 2 3 4 5 6 7 8 9 10 11 12 13 14 15 16 17 18 19 20 21 22 23 24 25 26 27 28 29 30 31 32 33 34 35 36 37 38 39 40 41 42 43 44 45 46 47 48 49 50
000
ASUS44 KFWD 301315
RWRTX
NORTH TEXAS HOURLY WEATHER ROUNDUP
NATIONAL WEATHER SERVICE FORT WORTH TX
800 AM CDT TUE AUG 30 2016

NOTE: "FAIR" INDICATES FEW OR NO CLOUDS BELOW 12,000 FEET WITH NO
SIGNIFICANT WEATHER AND/OR OBSTRUCTIONS TO VISIBILITY.

TXZ118-119-301400-
DALLAS/FORT WORTH METROPLEX

CITY           SKY/WX    TMP DP  RH WIND       PRES   REMARKS
DFW AIRPORT    MOSUNNY   78  72  81 N5        30.05R
DALLAS LOVE    MOSUNNY   78  71  79 NE3       30.04S
FTW MEACHAM    MOSUNNY   77  71  82 CALM      30.05S
DAL-EXECUTIVE  CLOUDY    76  72  87 CALM      30.05R
FTW-ALLIANCE   MOSUNNY   75  72  90 N3        30.06R
FTW-NAS-JRB    MOSUNNY   77  70  79 N3        30.06R
FTW-SPINKS     MOSUNNY   72  70  94 CALM      30.07S
ARLINGTON      MOSUNNY   75  72  90 CALM      30.05S
GRAND PRAIRIE  SUNNY     77  70  78 N3        30.07R
ADDISON        MOSUNNY   77  73  88 CALM      30.06S
MESQUITE       SUNNY     73  73 100 CALM      30.05R
LANCASTER      CLOUDY    75  71  87 CALM      30.05S
$$

TXZ091>094-102>105-117-120-121-131>134-301400-
NORTH CENTRAL TEXAS

CITY           SKY/WX    TMP DP  RH WIND       PRES   REMARKS
SHRMAN/DENISON SUNNY     75  75 100 NE3       30.09R
GAINESVILLE      N/A     73  71  95 CALM      30.10S
BOWIE          SUNNY     74  72  93 CALM      30.09S
BRIDGEPORT     SUNNY     72  72 100 CALM      30.10R
DECATUR        SUNNY     73  71  95 NE3       30.09S
DENTON         SUNNY     73  72  96 N5        30.06S
MCKINNEY       SUNNY     74  72  93 N5        30.06R
GREENVILLE     SUNNY     73  72  94 N3        30.06S
ROCKWALL       SUNNY     74  73  96 CALM      30.05R
TERRELL        SUNNY     76  71  85 N6        30.05R
WAXAHACHIE     PTSUNNY   72  72 100 CALM      30.06S
CLEBURNE       SUNNY     73  73 100 CALM      30.08S
GRANBURY       CLOUDY    74  71  92 CALM      30.08S
$$

TXZ083>090-098>101-113>116-127>130-139>142-154-155-301400-
WESTERN NORTH TEXAS

CITY           SKY/WX    TMP DP  RH WIND       PRES   REMARKS
WICHITA FALLS  MOSUNNY   74  69  85 NE3       30.10R
WF-KICKAPOO    MOSUNNY   74  69  83 N3        30.11S
VERNON         MOCLDY    73  67  81 N3        30.13R
ABILENE        PTCLDY    71  68  90 NE5       30.12R
ABILENE-DYESS  CLOUDY    72  70  94 N6        30.11S
CISCO          PTCLDY    72  70  94 NE5       30.12R
BRECKENRIDGE   CLEAR     73  71  94 CALM      30.09S
GRAHAM         SUNNY     71  71 100 CALM      30.09R
MINERAL WELLS  SUNNY     74  71  91 NE5       30.07R
STEPHENVILLE   SUNNY     71  69  92 CALM      30.11S
COMANCHE       PTCLDY    69  69 100 N3        30.08S
BROWNWOOD      CLEAR     70  68  94 N5        30.08S
COLEMAN        CLEAR     71  68  91 N5        30.10S
$$

TXZ143>147-156>162-174-175-301400-
CENTRAL TEXAS

CITY           SKY/WX    TMP DP  RH WIND       PRES   REMARKS
WACO           SUNNY     73  72  96 N7        30.04R
WACO-TSTC      SUNNY     73  72  94 N5        30.04R
WACO-MCGREGOR  SUNNY     73  71  93 N7        30.04R
HILLSBORO      SUNNY     71  70  98 NW3       30.05R
CORSICANA      SUNNY     75  71  87 N6        30.05R
MEXIA          MOSUNNY   73  71  95 W6        30.03R
HEARNE         PTSUNNY   72  71  95 CALM      30.02S
CAMERON        SUNNY     72  71  96 N5        30.02S
TEMPLE         SUNNY     72  71  97 N6        30.04R
KILLEEN        MOSUNNY   71  70  98 NE8       30.04R
KILLEEN-SKYLRK SUNNY     72  71  97 N5        30.05R
FORT HOOD      MOSUNNY   70  69  97 N5        30.03R
GATESVILLE     SUNNY     72  72 100 CALM      30.08R
HAMILTON       SUNNY     71  71 100 CALM      30.07S
LAMPASAS       SUNNY     71  70  97 N5        30.05R
$$

TXZ095>097-106>112-122>126-135>138-148>153-164>167-301400-
EAST TEXAS

CITY           SKY/WX    TMP DP  RH WIND       PRES   REMARKS
PARIS          SUNNY     75  72  88 NE5       30.06S
SULPHUR SPRNGS SUNNY     75  74  96 NE5       30.06F
MOUNT PLEASANT SUNNY     75  75 100 CALM      30.05S
GILMER         SUNNY     74  73  95 CALM      30.03S
TYLER          SUNNY     75  72  90 N5        30.03R
LONGVIEW       SUNNY     73  72  96 CALM      30.02R
MARSHALL       SUNNY     73  70  92 CALM      30.04S
ATHENS         CLOUDY    73  73 100 N5        30.01S
PALESTINE      SUNNY     75  71  87 CALM      30.03R
JACKSONVILLE   SUNNY     74  71  93 N6        30.05R
HENDERSON      SUNNY     73  73 100 CALM      30.04S
CENTER         SUNNY     75  73  95 NW3       30.02S
NACOGDOCHES    SUNNY    N/A N/A N/A N5        30.00R
LUFKIN         SUNNY     73  71  93 CALM      30.01R
$$

SUPPLEMENTAL OBSERVATIONS (CENTRAL)

CITY           SKY/WX    TMP DP  RH WIND       PRES   REMARKS
DENISON DAM      N/A     75  70  83 E2          N/A
CADDO GRASSLND   N/A     73  70  88 NE1         N/A
PAT MAYSE LAKE   N/A     73  72  94 NW3         N/A
GREENVILLE       N/A     75  70  83 N6          N/A
CEDAR HILL       N/A     73  72  94 NE1         N/A
ATHENS           N/A     75  72  88 CALM        N/A
LAKE LIMESTONE   N/A     75  72  88 N3          N/A
MCGREGOR         N/A     73  72  94 NE6         N/A
TEMPLE           N/A     73  70  88 N9          N/A
$$

SUPPLEMENTAL OBSERVATIONS (WEST)

CITY           SKY/WX    TMP DP  RH WIND       PRES   REMARKS
MILLERS CREEK    N/A     72  66  83 CALM        N/A
POSSUM KINGDOM   N/A     75  70  83 NE1         N/A
LBJ GRASSLAND    N/A     73  70  88 N1          N/A
GRANBURY         N/A     73  70  88 CALM        N/A
COMANCHE         N/A     70  66  88 NW5         N/A
HAMBY            N/A     70  66  88 NE2         N/A
$$

SUPPLEMENTAL OBSERVATIONS (EAST)

CITY           SKY/WX    TMP DP  RH WIND       PRES   REMARKS
CLARKSVILLE      N/A     79  73  83 N2          N/A
TEXARKANA        N/A     79  73  83 NE3         N/A
LINDEN           N/A     77  73  88 NE1         N/A
CADDO LAKE       N/A     75  70  83 CALM        N/A
GILMER           N/A     77  73  88 VRB2        N/A
HENDERSON        N/A     73  68  83 N3          N/A
LUFKIN           N/A     75  73  94 MISG        N/A
N SABINE NF      N/A     72  70  94 MISG        N/A
S SABINE NF      N/A     73  72  94 CALM        N/A
$$

SUPPLEMENTAL OBSERVATIONS ARE A COLLECTION OF AUTOMATED INSTRUMENTS
THAT ARE MAINTAINED BY A VARIETY OF FEDERAL AND STATE AGENCIES.
CERTAIN ELEMENTS...SUCH AS HUMIDITY VALUES AND SUSTAINED WIND
SPEEDS...MAY BE APPROXIMATED.





USA.gov is the U.S. government's official web portal to all federal, state and local government web resources and services.